Content
SEND FEEDBACK

Daily
Averages
Monthly
Summary
United States of America

MIDLAND, MICHIGAN


Home > North America > United States > Michigan
Elevation: 628 feet     Latitude: 43 39N     Longitude: 084 15W

WEATHER
 
SELECT A DAY
Number of Records: 115,840;   Date Range: 1/13/10 - 11/23/14
 
SHARE

PRINT THIS DATA

[ ← Previous Day ]
WEATHER ALMANAC - FEBRUARY 3, 2013
[ Next Day → ]
[ °C ]   °F
Weather ElementAverageHighLow
Temperature11.9 °F21.2 °F (3:54 pm)0.3 °F (4:13 am)
Dewpoint6.5 °F13.1 °F (2:54 pm)-3.1 °F (4:13 am)
Humidity79.3 %86 % (12:54 am)62 % (4:14 pm)
Barometer29.90 in29.99 in (12:54 am)29.81 in (2:14 pm)
Wind Speed4.3 mph15 mph (5:14 pm)
Wind Gust23 mph (4:34 pm)
Weather ElementAverage
Visibility8.6 mi
Wind DirectionSSE (161.3 °)

Weather ElementTotal
Precipitation---
Heating Degree Days54.3 (Base 65)
Averaged from 68 records on February 3, 2013
WEATHER CONDITIONS BREAKOUT
WIND DIRECTION BREAKOUT
WEATHER BY HOUR - FEBRUARY 3, 2013
[ °C ]   °F
Local TimeTemperatureDewpointHumidityBarometerVisibilityWind DirectionWind SpeedGust SpeedPrecipitationEventsConditions
12:54 AM2.7 °F-0.8 °F86 %29.99 in10.0 miCalmClear
1:14 AM3.2 °F0.0 °F86 %29.98 in10.0 miCalmClear
1:33 AM3.2 °F-0.4 °F85 %29.98 in10.0 miCalmScattered Clouds
1:54 AM3.0 °F-0.4 °F86 %29.98 in10.0 miCalmClear
2:14 AM2.8 °F-0.8 °F85 %29.98 in10.0 miCalmClear
2:34 AM2.8 °F-0.4 °F86 %29.97 in10.0 miCalmClear
2:54 AM2.3 °F-1.1 °F86 %29.97 in10.0 miCalmClear
3:13 AM2.1 °F-1.3 °F86 %29.96 in10.0 miCalmClear
3:34 AM1.0 °F-2.4 °F86 %29.95 in10.0 miCalmClear
3:54 AM0.9 °F-2.4 °F86 %29.95 in10.0 miCalmClear
4:13 AM0.3 °F-3.1 °F85 %29.94 in10.0 miCalmScattered Clouds
4:34 AM1.0 °F-2.2 °F86 %29.93 in10.0 miCalmMostly Cloudy
4:54 AM1.6 °F-1.8 °F86 %29.93 in10.0 miCalmScattered Clouds
5:13 AM2.3 °F-0.9 °F86 %29.92 in10.0 miCalmClear
5:34 AM3.0 °F-0.4 °F86 %29.91 in10.0 miCalmClear
5:54 AM2.8 °F-0.8 °F85 %29.90 in10.0 miCalmScattered Clouds
6:14 AM3.9 °F0.3 °F85 %29.90 in10.0 miCalmMostly Cloudy
6:34 AM4.3 °F0.7 °F85 %29.90 in10.0 miCalmMostly Cloudy
7:14 AM5.4 °F2.1 °F86 %29.90 in10.0 miCalmOvercast
7:34 AM6.6 °F3.2 °F86 %29.89 in10.0 miCalmOvercast
7:54 AM7.7 °F4.1 °F85 %29.89 in10.0 miCalmOvercast
8:14 AM8.4 °F4.8 °F85 %29.89 in10.0 miCalmMostly Cloudy
8:34 AM9.9 °F5.9 °F84 %29.89 in10.0 miCalmMostly Cloudy
8:54 AM10.9 °F6.8 °F83 %29.89 in10.0 miCalmOvercast
9:14 AM12.0 °F7.7 °F83 %29.89 in10.0 miSW (220°)5.8 mphOvercast
9:34 AM12.6 °F8.4 °F83 %29.89 in10.0 miSW (230°)4.6 mphOvercast
9:54 AM14.2 °F9.9 °F83 %29.89 in7.0 miWSW (240°)5.8 mphOvercast
10:14 AM14.4 °F9.7 °F82 %29.88 in5.0 miSW (230°)4.6 mphSnowLight Snow
10:34 AM14.5 °F9.9 °F82 %29.87 in4.0 miWSW (240°)5.8 mphSnowLight Snow
10:54 AM15.1 °F10.4 °F82 %29.87 in2.5 miSW (220°)5.8 mphSnowLight Snow
11:14 AM15.4 °F10.0 °F79 %29.87 in3.0 miSSW (210°)6.9 mphSnowLight Snow
11:34 AM16.0 °F10.8 °F80 %29.86 in3.0 miSW (230°)9.2 mphSnowLight Snow
11:54 AM16.5 °F10.8 °F78 %29.85 in3.0 miSW (230°)8.1 mphSnowLight Snow
12:14 PM16.7 °F11.1 °F79 %29.84 in3.0 miWSW (250°)4.6 mphSnowLight Snow
12:34 PM17.6 °F11.8 °F78 %29.84 in2.5 miWSW (240°)6.9 mphSnowLight Snow
12:54 PM18.0 °F11.8 °F77 %29.83 in2.5 miSSW (210°)5.8 mphSnowLight Snow
1:14 PM18.5 °F12.2 °F76 %29.82 in3.0 miWSW (250°)5.8 mphSnowLight Snow
1:35 PM18.5 °F12.7 °F78 %29.82 in4.0 miWSW (240°)5.8 mphSnowLight Snow
1:54 PM19.4 °F12.4 °F74 %29.82 in7.0 miSW (230°)8.1 mphSnowLight Snow
2:14 PM19.4 °F12.6 °F75 %29.81 in7.0 miWSW (240°)6.9 mphSnowLight Snow
2:34 PM19.4 °F12.6 °F75 %29.82 in5.0 miWSW (240°)8.1 mphSnowLight Snow
2:54 PM19.9 °F13.1 °F75 %29.82 in7.0 miSW (230°)4.6 mphSnowLight Snow
3:14 PM20.3 °F11.5 °F69 %29.82 in10.0 miWSW (250°)11.5 mph19.6 mphSnowLight Snow
3:34 PM20.3 °F11.7 °F69 %29.83 in10.0 miWest (280°)12.7 mph19.6 mphOvercast
3:54 PM21.2 °F10.9 °F65 %29.83 in10.0 miWest (280°)9.2 mph20.7 mphOvercast
4:14 PM21.0 °F9.7 °F62 %29.84 in10.0 miWest (270°)10.4 mph19.6 mphOvercast
4:34 PM20.5 °F9.9 °F64 %29.84 in10.0 miWest (280°)10.4 mph23.0 mphOvercast
4:54 PM19.9 °F12.0 °F71 %29.85 in10.0 miWNW (290°)10.4 mph19.6 mphOvercast
5:14 PM19.0 °F12.2 °F75 %29.86 in5.0 miWNW (290°)15.0 mph21.9 mphSnowLight Snow
5:34 PM19.0 °F10.4 °F69 %29.87 in10.0 miWNW (290°)9.2 mph20.7 mphOvercast
5:55 PM17.8 °F7.9 °F65 %29.88 in10.0 miWNW (290°)8.1 mph17.3 mphScattered Clouds
6:14 PM17.2 °F7.2 °F65 %29.89 in10.0 miWest (270°)6.9 mphClear
6:55 PM15.8 °F5.5 °F64 %29.91 in10.0 miWest (260°)6.9 mphScattered Clouds
7:14 PM15.4 °F5.7 °F65 %29.92 in10.0 miWest (260°)5.8 mphScattered Clouds
7:34 PM15.1 °F6.6 °F69 %29.92 in10.0 miWest (260°)6.9 mphClear
7:55 PM14.5 °F6.8 °F71 %29.92 in10.0 miWest (260°)4.6 mphMostly Cloudy
8:14 PM14.5 °F7.3 °F73 %29.92 in10.0 miWSW (250°)4.6 mphOvercast
8:34 PM13.8 °F7.5 °F76 %29.93 in10.0 miWSW (250°)4.6 mphMostly Cloudy
8:54 PM13.5 °F7.7 °F78 %29.93 in10.0 miWSW (240°)4.6 mphSnowLight Snow
9:14 PM13.5 °F8.6 °F81 %29.94 in10.0 miWSW (250°)4.6 mphClear
9:34 PM13.3 °F8.8 °F82 %29.95 in10.0 miWSW (240°)4.6 mphScattered Clouds
9:54 PM12.6 °F8.4 °F83 %29.95 in10.0 miWSW (240°)3.5 mphOvercast
10:14 PM13.5 °F9.5 °F84 %29.96 in10.0 miWSW (250°)4.6 mphOvercast
10:35 PM13.8 °F9.5 °F83 %29.96 in10.0 miWSW (250°)3.5 mphOvercast
10:54 PM13.5 °F9.5 °F84 %29.96 in10.0 miWSW (250°)4.6 mphOvercast
11:14 PM13.1 °F9.3 °F85 %29.95 in10.0 miWSW (250°)4.6 mphMostly Cloudy
11:35 PM12.6 °F9.1 °F86 %29.95 in10.0 miWSW (250°)4.6 mphSnowLight Snow
11:54 PM12.2 °F8.8 °F86 %29.96 in10.0 miWSW (240°)3.5 mphSnowLight Snow
Hourly data recorded from KIKW, located miles away from Midland, Michigan







STORIES FROM OUR PARTNERS